LEMUR-2-THEODOSIA (44863 NORAD) Tracking and Keplerian Element Data

This shows tracking and keplerian element data for the satellite.

Feedback or suggestion? Click here.




ElementValue
Catalog44863
NameLEMUR-2-THEODOSIA
Epoch Orbit3125
Epoch Day189.77773414
Epoch Year2020
RAAN338.7168
Inclination36.9689
Eccentricity0.0006684
Argument of Perigee237.9661
Mean Anonmoly122.0435
Mean Motion14.98892822
Decay Rate4.86E-06
L11 44863U 19089M 20189.77773414 .00000486 00000-0 45880-4 0 9999
L22 44863 36.9689 338.7168 0006684 237.9661 122.0435 14.98892822 31253

Live tracking and technical data element details for LEMUR-2-THEODOSIA (NORAD 44863). LEMUR-2-THEODOSIA can be tracked NOW for your location showing map with azimuth and elevation plus other details from your city location.

Track the satellite on the map from your city or location and see movement details for azimuth, elevation, latitude, longitude, range, height, and movement on the map or in text.







IsCatalogInMostPopularTable: catalog: 44863, numindb: 51
Update: records affected: 1



GetName: 44863 LEMUR-2-THEODOSIA

Hit Count: updated at: Fri, 10 Jul 2020 02:56:21 GMT